Flag for Canada Weather past 2 weeks in Waterloo, Ontario, Canada

Now
68 °F

Broken clouds.


Feels Like: 68 °F
Forecast: 47 / 66 °F
Wind: 15 mph from West

Location: Waterloo Well

Current Time: Sep 21, 2014 at 12:15:36 PM

Latest Report: Sep 21, 2014 at 11:00 AM


Visibility: 9 mi

Pressure: 29.56 "Hg

Humidity: 78%

Dew point: 61 °F

Location of WaterlooLocation

Historic Weather in Waterloo — Graph

°F

Waterloo temperature yesterday

Maximum temperature yesterday: 75 °F (at 3:00 PM)
Minimum temperature yesterday: 41 °F (at 1:00 AM)
Average temperature yesterday: 58 °F

Past Weeks' High & Low Weather Summary

 TemperatureHumidityPressure
High75 °F (Sep 20, 3:00 PM)100% (Sep 7, 12:00 AM)30.37 "Hg (Sep 7, 12:00 AM)
Low36 °F (Sep 19, 2:00 AM)43% (Sep 7, 5:00 PM)29.54 "Hg (Sep 11, 3:00 AM)
Average55 °F83%30.08 "Hg
* Reported Sep 6 11:00 AM — Sep 21 11:00 AM, Waterloo, Weather by CustomWeather, © 2014

Note: Actual official high and low records may vary slightly from our data, if they occured in-between our weather recording intervals... More about our weather records

Advertising

Waterloo weather history for previous 24 hours

 ConditionsComfort  
Time TempWeatherWind HumidityBarometerVisibility
11:00 AM
Sep 21
68 °FBroken clouds.15 mph78%29.56 "Hg9 mi
10:59 AM68 °FBroken clouds.14 mph78%29.56 "Hg9 mi
10:00 AM68 °FPartly sunny.15 mph88%29.55 "Hg9 mi
9:00 AM63 °FLight rain. Mostly cloudy.14 mph94%29.55 "Hg9 mi
8:03 AM63 °FRain. Fog.5 mph100%29.56 "Hg1 mi
7:57 AM63 °FThunderstorms. Fog.2 mph100%29.57 "Hg1 mi
7:00 AM63 °FLight rain. Fog.6 mph94%29.61 "Hg2 mi
6:00 AM63 °FFog.9 mph94%29.65 "Hg2 mi
5:00 AM63 °FFog.9 mph94%29.67 "Hg3 mi
4:56 AM63 °FFog.9 mph94%29.67 "Hg4 mi
4:00 AM63 °FLow clouds.12 mph94%29.69 "Hg9 mi
3:00 AM64 °FOvercast.15 mph88%29.70 "Hg9 mi
2:00 AM64 °FMostly cloudy.13 mph88%29.73 "Hg9 mi
1:00 AM64 °FOvercast.12 mph88%29.75 "Hg9 mi
12:00 AM64 °FPartly cloudy.14 mph88%29.76 "Hg9 mi
11:00 PM
Sep 20
66 °FLight rain. Mostly cloudy.10 mph83%29.77 "Hg9 mi
10:00 PM68 °FLight rain. Mostly cloudy.15 mph78%29.78 "Hg9 mi
9:00 PM68 °FMostly cloudy.14 mph78%29.79 "Hg9 mi
8:00 PM68 °FOvercast.14 mph78%29.80 "Hg9 mi
7:00 PM70 °FMostly cloudy.14 mph69%29.80 "Hg9 mi
6:00 PM72 °FPartly sunny.21 mph65%29.81 "Hg9 mi
5:00 PM72 °FPartly sunny.20 mph65%29.84 "Hg9 mi
4:00 PM73 °FPassing clouds.25 mph57%29.85 "Hg9 mi
3:00 PM75 °FSunny.21 mph54%29.85 "Hg9 mi
2:00 PM73 °FSunny.21 mph61%29.87 "Hg9 mi
1:00 PM73 °FSunny.20 mph61%29.90 "Hg9 mi
Weather by CustomWeather, © 2014

See weather overviewHow to use our weather pages